Weather History for Middletown, PA

Change the Weather History Date:

Thursday, October 3, 2013

  Actual Average Record
Temperature  
Mean Temperature 71 °F 59 °F  
Max Temperature 82 °F 68 °F 88 °F (1919)
Min Temperature 59 °F 49 °F 32 °F (1899)
Degree Days  
Heating Degree Days 0 7  
Month to date heating degree days 0 20  
Since 1 July heating degree days 75 92  
Cooling Degree Days 6 1  
Month to date cooling degree days 14 3  
Year to date cooling degree days 1074 996  
Growing Degree Days 20 (Base 50)    
Moisture  
Dew Point 61 °F    
Average Humidity 71    
Maximum Humidity 90    
Minimum Humidity 51    
Precipitation  
Precipitation 0.00 in 0.12 in 2.44 in (1927)
Month to date precipitation 0.00 0.37  
Year to date precipitation 25.43 31.38  
Snow  
Snow 0.00 in - - ()
Month to date snowfall 0.0  
Since 1 July snowfall 0.0  
Since 1 September snowfall 0.0  
Snow Depth 0.00 in    
Sea Level Pressure  
Sea Level Pressure 30.07 in    
Wind  
Wind Speed 2 mph (SSE)    
Max Wind Speed 7 mph    
Max Gust Speed 13 mph    
Visibility 8 miles    
Events      
T = Trace of Precipitation, MM = Missing Value Source: NWS Daily Summary

Daily Weather History Graph

Daily Weather History Graph

Search for Another Location

Airport:

Trip Planner

Search our weather history database for the weather conditions in past years. The results will help you decide how hot, cold, wet, or windy it might be!

Date:

Astronomy

Oct. 03, 2013 Rise Set
Actual Time 7:05 AM EDT 6:45 PM EDT
Civil Twilight 6:38 AM EDT 7:12 PM EDT
Nautical Twilight 6:07 AM EDT 7:44 PM EDT
Astronomical Twilight 5:35 AM EDT 8:15 PM EDT
Moon 5:36 AM EDT (10/3) 5:53 PM EDT (10/3)
Length of Visible Light 12h 34m
Length of Day
11h 40m
Waning Crescent, 2% of the Moon is Illuminated
Oct 3
Waning Crescent
Oct 4
New
Oct 11
First Quarter
Oct 18
Full
Oct 26
Last Quarter

Hourly Weather History & Observations

Time (EDT) Temp. Heat Index Dew Point Humidity Pressure Visibility Wind Dir Wind Speed Gust Speed Precip Events Conditions
12:56 AM 62.1 °F - 57.9 °F 86% 30.05 in 8.0 mi Calm Calm - N/A   Partly Cloudy
1:56 AM 62.1 °F - 57.9 °F 86% 30.07 in 7.0 mi Calm Calm - N/A   Partly Cloudy
2:56 AM 61.0 °F - 57.9 °F 90% 30.06 in 6.0 mi Calm Calm - N/A   Scattered Clouds
3:56 AM 60.1 °F - 57.0 °F 90% 30.07 in 6.0 mi Calm Calm - N/A   Mostly Cloudy
4:56 AM 60.1 °F - 57.0 °F 90% 30.07 in 5.0 mi Calm Calm - N/A   Scattered Clouds
5:56 AM 60.1 °F - 57.9 °F 93% 30.09 in 5.0 mi Calm Calm - N/A   Partly Cloudy
6:56 AM 59.0 °F - 55.9 °F 90% 30.10 in 4.0 mi Calm Calm - N/A   Mostly Cloudy
7:56 AM 62.1 °F - 57.9 °F 86% 30.12 in 4.0 mi North 4.6 mph - N/A   Mostly Cloudy
8:56 AM 64.9 °F - 60.1 °F 84% 30.14 in 5.0 mi NW 3.5 mph - N/A   Haze
9:56 AM 69.1 °F - 61.0 °F 75% 30.13 in 6.0 mi Calm Calm - N/A   Haze
10:56 AM 72.0 °F - 57.0 °F 59% 30.13 in 10.0 mi ESE 3.5 mph - N/A   Mostly Cloudy
11:56 AM 75.0 °F - 57.9 °F 55% 30.11 in 10.0 mi ESE 5.8 mph - N/A   Mostly Cloudy
12:56 PM 79.0 °F - 59.0 °F 50% 30.09 in 10.0 mi Calm Calm - N/A   Clear
1:56 PM 78.1 °F - 59.0 °F 52% 30.07 in 10.0 mi Calm Calm - N/A   Mostly Cloudy
2:56 PM 80.1 °F 80.9 °F 60.1 °F 50% 30.06 in 10.0 mi Calm Calm - N/A   Mostly Cloudy
3:56 PM 79.0 °F - 62.1 °F 56% 30.04 in 10.0 mi SE 3.5 mph - N/A   Mostly Cloudy
4:56 PM 79.0 °F - 62.1 °F 56% 30.04 in 10.0 mi West 3.5 mph - N/A   Mostly Cloudy
5:56 PM 75.0 °F - 66.9 °F 76% 30.03 in 9.0 mi Calm Calm - N/A   Mostly Cloudy
6:56 PM 72.0 °F - 66.0 °F 81% 30.04 in 9.0 mi Calm Calm - N/A   Overcast
7:56 PM 71.1 °F - 66.0 °F 84% 30.04 in 9.0 mi Calm Calm - N/A   Overcast
8:56 PM 69.1 °F - 66.0 °F 90% 30.05 in 8.0 mi Calm Calm - N/A   Mostly Cloudy
9:56 PM 68.0 °F - 64.9 °F 90% 30.06 in 8.0 mi SSE 3.5 mph - N/A   Mostly Cloudy
10:56 PM 71.1 °F - 64.0 °F 78% 30.06 in 8.0 mi South 5.8 mph - N/A   Scattered Clouds